Home > Weather > Knittelfeld > Past weeks

Flag for Austria Past Weather in Knittelfeld, Styria, Austria — Yesterday and Last 2 Weeks

Now
81 °F

Passing clouds.


Feels Like: 81 °F
Forecast: 58 / 79 °F
Wind: 3 mph from North

Location: Zeltweg

Current Time: Aug 28, 2016 at 2:29:30 PM

Latest Report: Aug 28, 2016 at 1:50 PM


Visibility: 19 mi

Pressure: 30.12 "Hg (28.00 "Hg at 641m altitude)

Humidity: 51%

Dew Point: 61 °F

Location of KnittelfeldLocation

Past Weather in Knittelfeld — Graph

°F

Knittelfeld Temperature Yesterday

Maximum temperature yesterday: 82 °F (at 2:50 PM)
Minimum temperature yesterday: 54 °F (at 4:50 AM)
Average temperature yesterday: 69 °F

High & Low Weather Summary for the Past Weeks

 TemperatureHumidityPressure
High82 °F (Aug 14, 3:50 PM)100% (Aug 14, 5:50 AM)30.42 "Hg (Aug 14, 5:50 AM)
Low46 °F (Aug 23, 5:50 AM)34% (Aug 14, 2:20 PM)29.86 "Hg (Aug 18, 3:50 PM)
Average66 °F70%30.15 "Hg
* Reported Aug 13 12:20 PM — Aug 28 12:50 PM, Knittelfeld, Weather by CustomWeather, © 2016

Note: Actual official high and low records may vary slightly from our data, if they occured in-between our weather recording intervals... More about our weather records

Advertising

Knittelfeld Weather History for the Previous 24 Hours

Scroll right to see more
 ConditionsComfort  
Time TempWeatherWind HumidityBarometerVisibility
12:50 PM
Sun, Aug 28
77 °FPassing clouds.3 mph61%30.12 "Hg19 mi
11:50 AM75 °FPassing clouds.2 mph61%30.15 "Hg16 mi
10:50 AM70 °FSunny.2 mph73%30.18 "Hg12 mi
9:50 AM64 °FPassing clouds.1 mph83%30.18 "Hg9 mi
8:50 AM61 °FRain. Fog.2 mph88%30.18 "Hg2 mi
7:50 AM57 °FFog.1 mph100%30.18 "Hg1 mi
6:50 AM55 °FPassing clouds.1 mph100%30.18 "Hg1 mi
5:50 AM55 °FPassing clouds.1 mph94%30.18 "Hg1 mi
4:50 AM54 °FPassing clouds.1 mph94%30.18 "Hg1 mi
10:50 PM
Sat, Aug 27
66 °FClear.1 mph78%30.18 "Hg12 mi
9:50 PM66 °FClear.3 mph83%30.18 "Hg12 mi
8:50 PM72 °FClear.10 mph65%30.18 "Hg19 mi
7:50 PM73 °FPassing clouds.7 mph65%30.15 "Hg25 mi
6:50 PM77 °FPassing clouds.7 mph57%30.15 "Hg25 mi
5:50 PM81 °FPassing clouds.6 mph54%30.15 "Hg25 mi
4:50 PM82 °FPassing clouds.5 mph48%30.15 "Hg25 mi
3:50 PM82 °FPassing clouds.3 mph48%30.15 "Hg25 mi
2:50 PM82 °FPassing clouds.3 mph45%30.18 "Hg25 mi
Weather by CustomWeather, © 2016

See weather overviewHow to use our weather pages